Regional Weather Roundup
Issued by NWS Mt. Holly, NJ

Home | Current Version | Previous Version | Text Only | Print | Product List | Glossary On
Versions: 1 2 3 4 5 6 7 8 9 10 11 12 13 14 15 16 17 18 19 20 21 22 23 24 25 26 27 28 29 30 31 32 33 34 35 36 37 38 39 40 41 42 43 44 45 46 47
000
ASUS41 KPHI 261910
RWRPHI

REGIONAL WEATHER ROUNDUP
NATIONAL WEATHER SERVICE MOUNT HOLLY NJ
200 PM EST FRI DEC 26 2014

NOTE:  "FAIR" INDICATES FEW OR NO CLOUDS BELOW 12,000 FEET WITH NO
SIGNIFICANT WEATHER AND/OR OBSTRUCTIONS TO VISIBILITY.

 * = STATION DOES NOT REPORT PRECIPITATION (E.G. RAIN, SNOW, ETC.)
        OR FOG.

NJZ015>026-262000-
SOUTHERN NEW JERSEY

CITY           SKY/WX    TMP DP  RH WIND       PRES   REMARKS
POMONA         FAIR      51  31  46 W7        30.23S
RIO GRANDE*    FAIR      46  30  53 W8          N/A
MILLVILLE      FAIR      50  31  48 SW9       30.24S
WRIGHTSTOWN    FAIR      49  31  49 W7        30.20F
MOUNT HOLLY    FAIR      48  29  47 SW8       30.23S
TRENTON        FAIR      48  29  47 W7        30.20F

$$
NJZ001>014-262000-
NORTHERN NEW JERSEY

CITY           SKY/WX    TMP DP  RH WIND       PRES   REMARKS
SUSSEX         FAIR      49  28  44 CALM      30.18F
ANDOVER*       NOT AVBL
MORRISTOWN     SUNNY     50  30  46 NW8       30.20F
NEWARK         FAIR      51  28  41 W10       30.19F
TETERBORO      FAIR      48  30  49 CALM      30.18F
CALDWELL       FAIR      48  27  44 VRB6      30.19F
SOMERVILLE     FAIR      49  28  44 VRB5      30.19F
ALLAIRE*       FAIR      48  28  46 W10       30.21S
TOMS RIVER*    FAIR      50  28  43 W3        30.20F

$$
PAZ043-044-047-054-055-060>062-066>071-262000-
EASTERN PENNSYLVANIA

CITY           SKY/WX    TMP DP  RH WIND       PRES   REMARKS
PHILADELPHIA   FAIR      49  30  48 SW12      30.24F
NORTH PHILA    FAIR      50  28  42 VRB7      30.24F
BLUE BELL      FAIR      48  32  53 W7        30.22S
DOYLESTOWN     FAIR      47  31  53 NW6       30.20F
POTTSTOWN      FAIR      47  30  51 W6        30.23F
LANCASTER      FAIR      46  30  53 W8        30.23F
COATESVILLE    FAIR      46  34  61 NW9       30.23F
READING        FAIR      47  30  51 W8        30.21F
ALLENTOWN      FAIR      48  29  47 W5        30.19F
MOUNT POCONO   FAIR      41  26  55 NW3       30.14F
HAZLETON       FAIR      41  28  60 W6        30.19F
WILKES BARRE   FAIR      45  28  51 SW6       30.17F

$$
DEZALL-MDZ008-012-015-019-020-262000-
DELAWARE AND EASTERN MARYLAND

CITY           SKY/WX    TMP DP  RH WIND       PRES   REMARKS
WILMINGTON     FAIR      50  31  48 NW7       30.25F
DOVER          FAIR      51  31  45 W9        30.23F
GEORGETOWN     FAIR      52  32  46 W8        30.27S
EASTON         SUNNY     52  36  54 W6        30.31S
PATUXENT       PTSUNNY   47  29  49 SE8       30.28F
OCEAN CITY     FAIR      48  37  65 S7        30.27F
WALLOPS ISLAND FAIR      53  34  48 W8        30.28F
CAMBRIDGE      FAIR      52  32  46 W8        30.27F
SALISBURY      FAIR      53  33  46 W7        30.27F

$$
PAZ001-021-NYZ056-072-MDZ011-DCZ001-262000-
OTHER NEARBY LOCATIONS

CITY           SKY/WX    TMP DP  RH WIND       PRES   REMARKS
HARRISBURG     FAIR      48  29  47 W7        30.22F
STATE COLLEGE  SUNNY     45  28  53 S8        30.18F
WILLIAMSPORT   FAIR      47  27  45 SW5       30.19F
BINGHAMTON     FAIR      41  28  60 SW7       30.12F
NEW YORK CITY  FAIR      49  27  42 NW6       30.21F
BALTIMORE      FAIR      52  29  41 SW8       30.24F
WASHINGTON DC  PTSUNNY   51  33  50 S13       30.27F

$$


USA.gov is the U.S. government's official web portal to all federal, state and local government web resources and services.